Time,TemperatureF,DewpointF,PressureIn,WindDirection,WindDirectionDegrees,WindSpeedMPH,WindSpeedGustMPH,Humidity,HourlyPrecipIn,Conditions,Clouds,dailyrainin,SoftwareType,DateUTC
2013-05-16 00:02:00,54.0,-99.9,30.04,WSW,248,13.0,16.0,-999,-99.99,,,-99.99,,2013-05-16 07:02:00,
2013-05-16 00:12:00,-999.0,-99.9,30.04,WSW,258,10.0,14.0,-999,-99.99,,,-99.99,,2013-05-16 07:12:00,
2013-05-16 00:24:00,54.0,-99.9,30.04,North,-999,-999.0,-999.0,-999,-99.99,,,-99.99,,2013-05-16 07:24:00,
2013-05-16 00:34:00,54.0,-99.9,30.04,WSW,250,12.0,16.0,-999,-99.99,,,-99.99,,2013-05-16 07:34:00,
2013-05-16 00:44:00,54.0,-99.9,30.04,WSW,249,11.0,17.0,-999,-99.99,,,-99.99,,2013-05-16 07:44:00,
2013-05-16 00:54:00,53.0,-99.9,30.03,West,262,10.0,17.0,-999,-99.99,,,-99.99,,2013-05-16 07:54:00,
2013-05-16 01:03:00,54.0,-99.9,30.03,North,-999,-999.0,-999.0,-999,-99.99,,,-99.99,,2013-05-16 08:03:00,
2013-05-16 01:13:00,54.0,-99.9,30.04,WSW,246,7.0,16.0,-999,-99.99,,,-99.99,,2013-05-16 08:13:00,
2013-05-16 01:24:00,54.0,-99.9,30.04,WSW,251,7.0,15.0,-999,-99.99,,,-99.99,,2013-05-16 08:24:00,
2013-05-16 01:35:00,54.0,-99.9,30.04,WSW,248,9.0,11.0,-999,-99.99,,,-99.99,,2013-05-16 08:35:00,
2013-05-16 01:45:00,-999.0,-99.9,30.04,WSW,243,12.0,17.0,-999,-99.99,,,-99.99,,2013-05-16 08:45:00,
2013-05-16 01:55:00,-999.0,-99.9,30.03,WSW,248,10.0,15.0,-999,-99.99,,,-99.99,,2013-05-16 08:55:00,
2013-05-16 02:04:00,53.0,-99.9,30.03,WSW,252,11.0,15.0,-999,-99.99,,,-99.99,,2013-05-16 09:04:00,
2013-05-16 02:14:00,-999.0,-99.9,30.03,West,261,11.0,18.0,-999,-99.99,,,-99.99,,2013-05-16 09:14:00,
2013-05-16 02:24:00,53.0,-99.9,30.03,North,-999,-999.0,-999.0,-999,-99.99,,,-99.99,,2013-05-16 09:24:00,
2013-05-16 02:35:00,53.0,-99.9,30.02,WSW,256,11.0,19.0,-999,-99.99,,,-99.99,,2013-05-16 09:35:00,
2013-05-16 02:45:00,-999.0,-99.9,30.02,WSW,255,15.0,20.0,-999,-99.99,,,-99.99,,2013-05-16 09:45:00,
2013-05-16 02:55:00,53.0,-99.9,30.01,WSW,257,12.0,18.0,-999,-99.99,,,-99.99,,2013-05-16 09:55:00,
2013-05-16 03:05:00,53.0,-99.9,30.02,WSW,249,10.0,17.0,-999,-99.99,,,-99.99,,2013-05-16 10:05:00,
2013-05-16 03:15:00,53.0,-99.9,30.02,WSW,258,15.0,20.0,-999,-99.99,,,-99.99,,2013-05-16 10:15:00,
2013-05-16 03:24:00,53.0,-99.9,30.02,West,263,11.0,15.0,-999,-99.99,,,-99.99,,2013-05-16 10:24:00,
2013-05-16 03:36:00,53.0,-99.9,30.02,West,270,8.0,15.0,-999,-99.99,,,-99.99,,2013-05-16 10:36:00,
2013-05-16 03:45:00,53.0,-99.9,30.02,West,274,8.0,13.0,-999,-99.99,,,-99.99,,2013-05-16 10:45:00,
2013-05-16 03:57:00,-999.0,-99.9,30.02,West,261,10.0,17.0,-999,-99.99,,,-99.99,,2013-05-16 10:57:00,
2013-05-16 04:05:00,53.0,-99.9,30.01,WSW,254,14.0,18.0,-999,-99.99,,,-99.99,,2013-05-16 11:05:00,
2013-05-16 04:15:00,53.0,-99.9,30.01,WSW,254,13.0,17.0,-999,-99.99,,,-99.99,,2013-05-16 11:15:00,
2013-05-16 04:25:00,53.0,-99.9,30.01,WSW,248,14.0,19.0,-999,-99.99,,,-99.99,,2013-05-16 11:25:00,
2013-05-16 04:35:00,53.0,-99.9,30.01,WSW,254,11.0,16.0,-999,-99.99,,,-99.99,,2013-05-16 11:35:00,
2013-05-16 04:46:00,53.0,-99.9,30.01,WSW,257,13.0,18.0,-999,-99.99,,,-99.99,,2013-05-16 11:46:00,
2013-05-16 04:57:00,53.0,-99.9,30.01,North,-999,-999.0,-999.0,-999,-99.99,,,-99.99,,2013-05-16 11:57:00,
2013-05-16 05:06:00,53.0,-99.9,30.01,West,266,13.0,18.0,-999,-99.99,,,-99.99,,2013-05-16 12:06:00,
2013-05-16 05:13:00,53.0,-99.9,30.01,WSW,254,11.0,17.0,-999,-99.99,,,-99.99,,2013-05-16 12:13:00,
2013-05-16 05:23:00,-999.0,-99.9,30.01,WSW,258,10.0,16.0,-999,-99.99,,,-99.99,,2013-05-16 12:23:00,
2013-05-16 05:35:00,-999.0,-99.9,30.02,WSW,250,8.0,11.0,-999,-99.99,,,-99.99,,2013-05-16 12:35:00,
2013-05-16 05:45:00,53.0,-99.9,30.02,WSW,242,8.0,12.0,-999,-99.99,,,-99.99,,2013-05-16 12:45:00,
2013-05-16 05:53:00,53.0,-99.9,30.02,West,259,5.0,11.0,-999,-99.99,,,-99.99,,2013-05-16 12:53:00,
2013-05-16 06:04:00,53.0,-99.9,30.02,WSW,241,9.0,11.0,-999,-99.99,,,-99.99,,2013-05-16 13:04:00,
2013-05-16 06:12:00,53.0,-99.9,30.02,WSW,249,10.0,14.0,-999,-99.99,,,-99.99,,2013-05-16 13:12:00,
2013-05-16 06:27:00,53.0,-99.9,30.02,North,-999,-999.0,-999.0,-999,-99.99,,,-99.99,,2013-05-16 13:27:00,
2013-05-16 06:35:00,53.0,-99.9,30.03,WSW,242,6.0,13.0,-999,-99.99,,,-99.99,,2013-05-16 13:35:00,
2013-05-16 06:44:00,53.0,-99.9,30.03,SW,235,7.0,13.0,-999,-99.99,,,-99.99,,2013-05-16 13:44:00,
2013-05-16 06:55:00,53.0,-99.9,30.03,WSW,243,8.0,14.0,-999,-99.99,,,-99.99,,2013-05-16 13:55:00,
2013-05-16 07:05:00,53.0,-99.9,30.03,SW,232,8.0,15.0,-999,-99.99,,,-99.99,,2013-05-16 14:05:00,
2013-05-16 07:16:00,53.0,-99.9,30.04,WSW,256,7.0,11.0,-999,-99.99,,,-99.99,,2013-05-16 14:16:00,
2013-05-16 07:23:00,53.0,-99.9,30.04,North,-999,-999.0,-999.0,-999,-99.99,,,-99.99,,2013-05-16 14:23:00,
2013-05-16 07:37:00,53.0,-99.9,30.04,WSW,240,8.0,14.0,-999,-99.99,,,-99.99,,2013-05-16 14:37:00,
2013-05-16 07:47:00,53.0,-99.9,30.04,WSW,246,7.0,12.0,-999,-99.99,,,-99.99,,2013-05-16 14:47:00,
2013-05-16 07:56:00,53.0,-99.9,30.04,WSW,247,7.0,13.0,-999,-99.99,,,-99.99,,2013-05-16 14:56:00,
2013-05-16 08:08:00,53.0,-99.9,30.04,WSW,244,10.0,15.0,-999,-99.99,,,-99.99,,2013-05-16 15:08:00,
2013-05-16 08:17:00,53.0,-99.9,30.05,WSW,250,6.0,12.0,-999,-99.99,,,-99.99,,2013-05-16 15:17:00,
2013-05-16 08:28:00,54.0,-99.9,30.05,North,-999,-999.0,-999.0,-999,-99.99,,,-99.99,,2013-05-16 15:28:00,
2013-05-16 08:41:00,54.0,-99.9,30.05,WSW,244,9.0,15.0,-999,-99.99,,,-99.99,,2013-05-16 15:41:00,
2013-05-16 08:50:00,54.0,-99.9,30.05,WSW,241,11.0,15.0,-999,-99.99,,,-99.99,,2013-05-16 15:50:00,
2013-05-16 09:01:00,54.0,-99.9,30.05,WSW,245,12.0,17.0,-999,-99.99,,,-99.99,,2013-05-16 16:01:00,
2013-05-16 09:09:00,55.0,-99.9,30.05,WSW,245,9.0,17.0,-999,-99.99,,,-99.99,,2013-05-16 16:09:00,
2013-05-16 09:20:00,54.0,-99.9,30.05,WSW,248,11.0,19.0,-999,-99.99,,,-99.99,,2013-05-16 16:20:00,
2013-05-16 09:31:00,54.0,-99.9,30.06,WSW,241,10.0,15.0,-999,-99.99,,,-99.99,,2013-05-16 16:31:00,
2013-05-16 09:40:00,54.0,-99.9,30.06,WSW,243,8.0,13.0,-999,-99.99,,,-99.99,,2013-05-16 16:40:00,
2013-05-16 09:51:00,-999.0,-99.9,30.06,WSW,237,9.0,14.0,-999,-99.99,,,-99.99,,2013-05-16 16:51:00,
2013-05-16 10:01:00,54.0,-99.9,30.06,WSW,250,7.0,11.0,-999,-99.99,,,-99.99,,2013-05-16 17:01:00,
2013-05-16 10:11:00,55.0,-99.9,30.06,West,268,5.0,7.0,-999,-99.99,,,-99.99,,2013-05-16 17:11:00,
2013-05-16 10:20:00,55.0,-99.9,30.06,SW,224,6.0,9.0,-999,-99.99,,,-99.99,,2013-05-16 17:20:00,
2013-05-16 10:31:00,55.0,-99.9,30.05,WSW,240,6.0,11.0,-999,-99.99,,,-99.99,,2013-05-16 17:31:00,
2013-05-16 10:40:00,55.0,-99.9,30.05,WSW,242,8.0,13.0,-999,-99.99,,,-99.99,,2013-05-16 17:40:00,
2013-05-16 10:50:00,55.0,-99.9,30.06,West,267,6.0,12.0,-999,-99.99,,,-99.99,,2013-05-16 17:50:00,
2013-05-16 11:00:00,-999.0,-99.9,30.05,NW,313,3.0,11.0,-999,-99.99,,,-99.99,,2013-05-16 18:00:00,
2013-05-16 11:10:00,55.0,-99.9,30.06,WNW,286,4.0,8.0,-999,-99.99,,,-99.99,,2013-05-16 18:10:00,
2013-05-16 11:20:00,55.0,-99.9,30.06,West,276,5.0,8.0,-999,-99.99,,,-99.99,,2013-05-16 18:20:00,
2013-05-16 11:30:00,-999.0,-99.9,30.06,SW,231,4.0,11.0,-999,-99.99,,,-99.99,,2013-05-16 18:30:00,
2013-05-16 11:41:00,-999.0,-99.9,30.06,WSW,241,9.0,15.0,-999,-99.99,,,-99.99,,2013-05-16 18:41:00,
2013-05-16 11:51:00,-999.0,-99.9,30.06,SW,233,10.0,16.0,-999,-99.99,,,-99.99,,2013-05-16 18:51:00,
2013-05-16 12:01:00,-999.0,-99.9,30.06,SW,236,8.0,13.0,-999,-99.99,,,-99.99,,2013-05-16 19:01:00,
2013-05-16 12:11:00,56.0,-99.9,30.06,SW,228,11.0,16.0,-999,-99.99,,,-99.99,,2013-05-16 19:11:00,
2013-05-16 12:20:00,56.0,-99.9,30.06,SW,230,11.0,17.0,-999,-99.99,,,-99.99,,2013-05-16 19:20:00,
2013-05-16 12:30:00,56.0,-99.9,30.06,SW,225,9.0,13.0,-999,-99.99,,,-99.99,,2013-05-16 19:30:00,
2013-05-16 12:40:00,56.0,-99.9,30.06,WSW,239,6.0,17.0,-999,-99.99,,,-99.99,,2013-05-16 19:40:00,
2013-05-16 12:51:00,-999.0,-99.9,30.06,SW,225,11.0,15.0,-999,-99.99,,,-99.99,,2013-05-16 19:51:00,
2013-05-16 13:01:00,56.0,-99.9,30.06,WSW,238,6.0,15.0,-999,-99.99,,,-99.99,,2013-05-16 20:01:00,
2013-05-16 13:10:00,-999.0,-99.9,30.05,SW,232,12.0,18.0,-999,-99.99,,,-99.99,,2013-05-16 20:10:00,
2013-05-16 13:20:00,56.0,-99.9,30.05,SW,236,9.0,17.0,-999,-99.99,,,-99.99,,2013-05-16 20:20:00,
2013-05-16 13:30:00,-999.0,-99.9,30.05,WSW,244,12.0,18.0,-999,-99.99,,,-99.99,,2013-05-16 20:30:00,
2013-05-16 13:41:00,-999.0,-99.9,30.04,SW,224,12.0,19.0,-999,-99.99,,,-99.99,,2013-05-16 20:41:00,
2013-05-16 13:51:00,57.0,-99.9,30.05,WSW,242,9.0,17.0,-999,-99.99,,,-99.99,,2013-05-16 20:51:00,
2013-05-16 14:00:00,57.0,-99.9,30.05,West,262,12.0,17.0,-999,-99.99,,,-99.99,,2013-05-16 21:00:00,
2013-05-16 14:10:00,56.0,-99.9,30.05,West,260,12.0,18.0,-999,-99.99,,,-99.99,,2013-05-16 21:10:00,
2013-05-16 14:20:00,55.0,-99.9,30.05,WSW,253,11.0,17.0,-999,-99.99,,,-99.99,,2013-05-16 21:20:00,
2013-05-16 14:29:00,54.0,-99.9,30.05,WSW,248,11.0,20.0,-999,-99.99,,,-99.99,,2013-05-16 21:29:00,
2013-05-16 14:39:00,-999.0,-99.9,30.05,WSW,244,11.0,18.0,-999,-99.99,,,-99.99,,2013-05-16 21:39:00,
2013-05-16 14:50:00,54.0,-99.9,30.05,WSW,251,8.0,15.0,-999,-99.99,,,-99.99,,2013-05-16 21:50:00,
2013-05-16 15:01:00,-999.0,-99.9,30.04,WSW,257,10.0,17.0,-999,-99.99,,,-99.99,,2013-05-16 22:01:00,
2013-05-16 15:08:00,-999.0,-99.9,30.04,WSW,248,10.0,19.0,-999,-99.99,,,-99.99,,2013-05-16 22:08:00,
2013-05-16 15:21:00,54.0,-99.9,30.04,WSW,245,10.0,19.0,-999,-99.99,,,-99.99,,2013-05-16 22:21:00,
2013-05-16 15:31:00,53.0,-99.9,30.04,WSW,245,11.0,21.0,-999,-99.99,,,-99.99,,2013-05-16 22:31:00,
2013-05-16 15:40:00,53.0,-99.9,30.04,WSW,242,9.0,21.0,-999,-99.99,,,-99.99,,2013-05-16 22:40:00,
2013-05-16 15:51:00,-999.0,-99.9,30.03,WSW,256,13.0,19.0,-999,-99.99,,,-99.99,,2013-05-16 22:51:00,
2013-05-16 16:01:00,-999.0,-99.9,30.03,West,266,10.0,19.0,-999,-99.99,,,-99.99,,2013-05-16 23:01:00,
2013-05-16 16:07:00,54.0,-99.9,30.03,West,269,9.0,17.0,-999,-99.99,,,-99.99,,2013-05-16 23:07:00,
2013-05-16 16:16:00,-999.0,-99.9,30.03,West,264,8.0,17.0,-999,-99.99,,,-99.99,,2013-05-16 23:16:00,
2013-05-16 16:24:00,54.0,-99.9,30.03,North,-999,-999.0,-999.0,-999,-99.99,,,-99.99,,2013-05-16 23:24:00,
2013-05-16 16:35:00,55.0,-99.9,30.03,West,276,11.0,18.0,-999,-99.99,,,-99.99,,2013-05-16 23:35:00,
2013-05-16 16:45:00,55.0,-99.9,30.02,WSW,245,10.0,19.0,-999,-99.99,,,-99.99,,2013-05-16 23:45:00,
2013-05-16 16:54:00,55.0,-99.9,30.02,WSW,243,8.0,15.0,-999,-99.99,,,-99.99,,2013-05-16 23:54:00,
2013-05-16 17:03:00,55.0,-99.9,30.02,West,268,9.0,22.0,-999,-99.99,,,-99.99,,2013-05-17 00:03:00,
2013-05-16 17:13:00,56.0,-99.9,30.02,WSW,243,12.0,18.0,-999,-99.99,,,-99.99,,2013-05-17 00:13:00,
2013-05-16 17:22:00,56.0,-99.9,30.01,WSW,246,12.0,23.0,-999,-99.99,,,-99.99,,2013-05-17 00:22:00,
2013-05-16 17:33:00,56.0,-99.9,30.01,WSW,247,11.0,21.0,-999,-99.99,,,-99.99,,2013-05-17 00:33:00,
2013-05-16 17:44:00,56.0,-99.9,30.01,WSW,245,14.0,25.0,-999,-99.99,,,-99.99,,2013-05-17 00:44:00,
2013-05-16 17:53:00,-999.0,-99.9,30.01,SW,234,14.0,24.0,-999,-99.99,,,-99.99,,2013-05-17 00:53:00,
2013-05-16 18:03:00,56.0,-99.9,30.01,WSW,242,10.0,20.0,-999,-99.99,,,-99.99,,2013-05-17 01:03:00,
2013-05-16 18:12:00,56.0,-99.9,30.00,WSW,246,15.0,21.0,-999,-99.99,,,-99.99,,2013-05-17 01:12:00,
2013-05-16 18:23:00,56.0,-99.9,30.00,WSW,238,13.0,24.0,-999,-99.99,,,-99.99,,2013-05-17 01:23:00,
2013-05-16 18:32:00,56.0,-99.9,30.00,WSW,239,10.0,19.0,-999,-99.99,,,-99.99,,2013-05-17 01:32:00,
2013-05-16 18:44:00,56.0,-99.9,30.00,WSW,246,10.0,19.0,-999,-99.99,,,-99.99,,2013-05-17 01:44:00,
2013-05-16 18:53:00,55.0,-99.9,30.00,WSW,245,16.0,24.0,-999,-99.99,,,-99.99,,2013-05-17 01:53:00,
2013-05-16 19:02:00,-999.0,-99.9,30.00,SW,235,17.0,23.0,-999,-99.99,,,-99.99,,2013-05-17 02:02:00,
2013-05-16 19:12:00,55.0,-99.9,30.00,WSW,246,10.0,20.0,-999,-99.99,,,-99.99,,2013-05-17 02:12:00,
2013-05-16 19:22:00,-999.0,-99.9,30.00,WSW,248,12.0,21.0,-999,-99.99,,,-99.99,,2013-05-17 02:22:00,
2013-05-16 19:33:00,55.0,-99.9,30.00,WSW,249,11.0,17.0,-999,-99.99,,,-99.99,,2013-05-17 02:33:00,
2013-05-16 19:42:00,55.0,-99.9,30.00,WSW,238,11.0,19.0,-999,-99.99,,,-99.99,,2013-05-17 02:42:00,
2013-05-16 19:53:00,55.0,-99.9,30.00,WSW,249,12.0,18.0,-999,-99.99,,,-99.99,,2013-05-17 02:53:00,
2013-05-16 20:02:00,54.0,-99.9,30.01,WSW,243,11.0,20.0,-999,-99.99,,,-99.99,,2013-05-17 03:02:00,
2013-05-16 20:11:00,55.0,-99.9,30.01,WSW,243,8.0,17.0,-999,-99.99,,,-99.99,,2013-05-17 03:11:00,
2013-05-16 20:23:00,54.0,-99.9,30.01,WSW,239,7.0,15.0,-999,-99.99,,,-99.99,,2013-05-17 03:23:00,
2013-05-16 20:34:00,54.0,-99.9,30.01,West,267,2.0,13.0,-999,-99.99,,,-99.99,,2013-05-17 03:34:00,
2013-05-16 20:43:00,54.0,-99.9,30.01,SW,220,4.0,11.0,-999,-99.99,,,-99.99,,2013-05-17 03:43:00,
2013-05-16 20:53:00,54.0,-99.9,30.01,WSW,244,7.0,13.0,-999,-99.99,,,-99.99,,2013-05-17 03:53:00,
2013-05-16 21:03:00,54.0,-99.9,30.01,WSW,238,12.0,18.0,-999,-99.99,,,-99.99,,2013-05-17 04:03:00,
2013-05-16 21:13:00,54.0,-99.9,30.01,SW,230,7.0,37.0,-999,-99.99,,,-99.99,,2013-05-17 04:13:00,
2013-05-16 21:23:00,-999.0,-99.9,30.02,WSW,237,11.0,16.0,-999,-99.99,,,-99.99,,2013-05-17 04:23:00,
2013-05-16 21:34:00,54.0,-99.9,30.02,WSW,237,10.0,17.0,-999,-99.99,,,-99.99,,2013-05-17 04:34:00,
2013-05-16 21:43:00,54.0,-99.9,30.02,WSW,237,8.0,14.0,-999,-99.99,,,-99.99,,2013-05-17 04:43:00,
2013-05-16 21:53:00,54.0,-99.9,30.02,West,261,4.0,9.0,-999,-99.99,,,-99.99,,2013-05-17 04:53:00,
2013-05-16 22:03:00,-999.0,-99.9,30.02,WSW,246,5.0,8.0,-999,-99.99,,,-99.99,,2013-05-17 05:03:00,
2013-05-16 22:14:00,54.0,-99.9,30.03,WSW,239,5.0,13.0,-999,-99.99,,,-99.99,,2013-05-17 05:14:00,
2013-05-16 22:22:00,-999.0,-99.9,30.03,SW,235,7.0,12.0,-999,-99.99,,,-99.99,,2013-05-17 05:22:00,
2013-05-16 22:32:00,54.0,-99.9,30.03,WSW,253,6.0,11.0,-999,-99.99,,,-99.99,,2013-05-17 05:32:00,
2013-05-16 22:43:00,-999.0,-99.9,30.03,WSW,246,6.0,11.0,-999,-99.99,,,-99.99,,2013-05-17 05:43:00,
2013-05-16 22:52:00,54.0,-99.9,30.03,West,263,5.0,11.0,-999,-99.99,,,-99.99,,2013-05-17 05:52:00,
2013-05-16 23:02:00,54.0,-99.9,30.03,WSW,250,5.0,13.0,-999,-99.99,,,-99.99,,2013-05-17 06:02:00,
2013-05-16 23:11:00,54.0,-99.9,30.02,WSW,253,6.0,11.0,-999,-99.99,,,-99.99,,2013-05-17 06:11:00,
2013-05-16 23:22:00,54.0,-99.9,30.02,WSW,251,9.0,15.0,-999,-99.99,,,-99.99,,2013-05-17 06:22:00,
2013-05-16 23:32:00,54.0,-99.9,30.03,West,268,9.0,17.0,-999,-99.99,,,-99.99,,2013-05-17 06:32:00,
2013-05-16 23:42:00,54.0,-99.9,30.03,West,281,9.0,13.0,-999,-99.99,,,-99.99,,2013-05-17 06:42:00,
2013-05-16 23:52:00,54.0,-99.9,30.02,West,276,7.0,13.0,-999,-99.99,,,-99.99,,2013-05-17 06:52:00,